Time,TemperatureF,DewpointF,PressureIn,WindDirection,WindDirectionDegrees,WindSpeedMPH,WindSpeedGustMPH,Humidity,HourlyPrecipIn,Conditions,Clouds,dailyrainin,SolarRadiationWatts/m^2,SoftwareType,DateUTC
2013-08-17 00:01:00,68.4,67.5,30.12,ENE,63,1.7,4.0,97,0.00,CLR,OVC,0.10,0.0,WeatherDisplay:10.37,2013-08-17 04:01:00,
2013-08-17 00:06:00,68.3,67.4,30.11,NE,51,0.8,5.0,97,0.00,RA,OVC,0.00,0.0,WeatherDisplay:10.37,2013-08-17 04:06:00,
2013-08-17 00:11:00,68.2,67.3,30.12,ENE,72,1.3,4.6,97,0.00,RA,OVC,0.00,0.0,WeatherDisplay:10.37,2013-08-17 04:11:00,
2013-08-17 00:16:00,68.1,67.2,30.11,East,83,0.3,3.5,97,0.00,CLR,OVC,0.00,0.0,WeatherDisplay:10.37,2013-08-17 04:16:00,
2013-08-17 00:21:00,68.1,67.2,30.11,ENE,66,2.2,3.5,97,0.00,CLR,OVC,0.00,0.0,WeatherDisplay:10.37,2013-08-17 04:21:00,
2013-08-17 00:26:00,68.0,66.8,30.11,NNE,19,2.7,4.6,96,0.00,CLR,OVC,0.00,0.0,WeatherDisplay:10.37,2013-08-17 04:26:00,
2013-08-17 00:31:00,68.0,66.8,30.12,NW,310,1.9,4.0,96,0.00,CLR,OVC,0.00,0.0,WeatherDisplay:10.37,2013-08-17 04:31:00,
2013-08-17 00:36:00,68.0,66.8,30.12,ENE,61,0.9,3.5,96,0.00,CLR,OVC,0.00,0.0,WeatherDisplay:10.37,2013-08-17 04:36:00,
2013-08-17 00:41:00,67.9,66.7,30.12,ENE,61,1.3,4.0,96,0.00,CLR,OVC,0.00,0.0,WeatherDisplay:10.37,2013-08-17 04:41:00,
2013-08-17 00:46:00,67.9,66.7,30.12,NE,53,5.3,8.1,96,0.00,CLR,OVC,0.00,0.0,WeatherDisplay:10.37,2013-08-17 04:46:00,
2013-08-17 00:51:00,67.9,66.7,30.12,NE,51,4.1,5.8,96,0.00,CLR,OVC,0.00,0.0,WeatherDisplay:10.37,2013-08-17 04:51:00,
2013-08-17 00:56:00,67.9,66.7,30.12,NE,46,4.1,5.8,96,0.00,CLR,OVC,0.00,0.0,WeatherDisplay:10.37,2013-08-17 04:56:00,
2013-08-17 01:01:00,67.9,66.7,30.12,North,5,1.5,4.6,96,0.00,CLR,OVC,0.00,0.0,WeatherDisplay:10.37,2013-08-17 05:01:00,
2013-08-17 01:06:00,67.9,66.7,30.12,ENE,63,3.9,3.9,96,0.00,CLR,OVC,0.00,0.0,WeatherDisplay:10.37,2013-08-17 05:06:00,
2013-08-17 01:11:00,67.9,66.7,30.12,NE,47,2.0,5.0,96,0.00,CLR,OVC,0.00,0.0,WeatherDisplay:10.37,2013-08-17 05:11:00,
2013-08-17 01:16:00,67.9,66.4,30.12,ENE,72,3.4,5.8,95,0.00,CLR,OVC,0.00,0.0,WeatherDisplay:10.37,2013-08-17 05:16:00,
2013-08-17 01:21:00,67.8,66.3,30.11,NNE,33,3.2,6.9,95,0.00,CLR,OVC,0.00,0.0,WeatherDisplay:10.37,2013-08-17 05:21:00,
2013-08-17 01:26:00,67.8,66.3,30.11,NW,304,4.0,6.9,95,0.00,CLR,OVC,0.00,0.0,WeatherDisplay:10.37,2013-08-17 05:26:00,
2013-08-17 01:31:00,67.8,66.3,30.11,NE,47,4.1,4.6,95,0.00,CLR,OVC,0.00,0.0,WeatherDisplay:10.37,2013-08-17 05:31:00,
2013-08-17 01:36:00,67.8,66.3,30.11,NE,42,5.3,8.0,95,0.00,CLR,OVC,0.00,0.0,WeatherDisplay:10.37,2013-08-17 05:36:00,
2013-08-17 01:41:00,67.9,66.4,30.11,NE,46,5.9,8.1,95,0.00,CLR,OVC,0.00,0.0,WeatherDisplay:10.37,2013-08-17 05:41:00,
2013-08-17 01:46:00,67.9,66.4,30.11,NE,40,0.7,5.8,95,0.00,CLR,OVC,0.00,0.0,WeatherDisplay:10.37,2013-08-17 05:46:00,
2013-08-17 01:51:00,67.9,66.4,30.10,NE,38,2.6,6.9,95,0.00,CLR,OVC,0.00,0.0,WeatherDisplay:10.37,2013-08-17 05:51:00,
2013-08-17 01:56:00,67.9,66.4,30.10,NE,37,2.7,6.9,95,0.00,CLR,OVC,0.00,0.0,WeatherDisplay:10.37,2013-08-17 05:56:00,
2013-08-17 02:01:00,68.0,66.5,30.10,NE,53,3.3,5.0,95,0.00,CLR,OVC,0.00,0.0,WeatherDisplay:10.37,2013-08-17 06:01:00,
2013-08-17 02:06:00,68.0,66.2,30.10,NNE,21,3.5,8.1,94,0.00,CLR,OVC,0.00,0.0,WeatherDisplay:10.37,2013-08-17 06:06:00,
2013-08-17 02:11:00,68.1,66.3,30.10,ENE,57,3.6,4.6,94,0.00,CLR,OVC,0.00,0.0,WeatherDisplay:10.37,2013-08-17 06:11:00,
2013-08-17 02:16:00,68.1,66.6,30.10,NE,50,3.7,4.6,95,0.00,CLR,OVC,0.00,0.0,WeatherDisplay:10.37,2013-08-17 06:16:00,
2013-08-17 02:21:00,68.2,66.7,30.10,NE,36,3.1,6.9,95,0.00,CLR,OVC,0.00,0.0,WeatherDisplay:10.37,2013-08-17 06:21:00,
2013-08-17 02:27:00,68.3,66.8,30.10,NE,43,1.1,1.1,95,0.00,CLR,OVC,0.00,0.0,WeatherDisplay:10.37,2013-08-17 06:27:00,
2013-08-17 02:32:00,68.3,66.8,30.10,NNE,15,1.7,3.5,95,0.00,CLR,OVC,0.00,0.0,WeatherDisplay:10.37,2013-08-17 06:32:00,
2013-08-17 02:37:00,68.4,66.9,30.10,NE,44,1.8,3.5,95,0.00,CLR,OVC,0.00,0.0,WeatherDisplay:10.37,2013-08-17 06:37:00,
2013-08-17 02:42:00,68.5,67.0,30.10,NE,42,0.7,2.3,95,0.00,CLR,OVC,0.00,0.0,WeatherDisplay:10.37,2013-08-17 06:42:00,
2013-08-17 02:47:00,68.5,67.0,30.10,NE,41,1.4,3.5,95,0.00,CLR,OVC,0.00,0.0,WeatherDisplay:10.37,2013-08-17 06:47:00,
2013-08-17 02:52:00,68.6,67.1,30.09,ENE,62,3.4,8.1,95,0.01,RA,OVC,0.01,0.0,WeatherDisplay:10.37,2013-08-17 06:52:00,
2013-08-17 02:57:00,68.6,67.1,30.09,NNE,29,4.2,5.8,95,0.02,RA,OVC,0.02,0.0,WeatherDisplay:10.37,2013-08-17 06:57:00,
2013-08-17 03:02:00,68.6,67.1,30.09,ENE,66,2.9,5.8,95,0.02,RA,OVC,0.02,0.0,WeatherDisplay:10.37,2013-08-17 07:02:00,
2013-08-17 03:07:00,68.6,67.1,30.10,ENE,69,1.9,3.5,95,0.03,RA,OVC,0.03,0.0,WeatherDisplay:10.37,2013-08-17 07:07:00,
2013-08-17 03:12:00,68.6,67.4,30.10,ENE,68,1.3,3.5,96,0.06,RA,OVC,0.06,0.0,WeatherDisplay:10.37,2013-08-17 07:12:00,
2013-08-17 03:17:00,68.5,67.3,30.10,ENE,69,1.2,3.5,96,0.07,RA,OVC,0.07,0.0,WeatherDisplay:10.37,2013-08-17 07:17:00,
2013-08-17 03:22:00,68.4,67.2,30.09,NNE,12,3.5,6.0,96,0.19,RA,OVC,0.19,0.0,WeatherDisplay:10.37,2013-08-17 07:22:00,
2013-08-17 03:27:00,68.3,67.4,30.08,NE,36,4.1,8.1,97,0.30,RA,OVC,0.31,0.0,WeatherDisplay:10.37,2013-08-17 07:27:00,
2013-08-17 03:32:00,68.2,67.3,30.08,NE,34,5.4,9.2,97,0.34,RA,OVC,0.34,0.0,WeatherDisplay:10.37,2013-08-17 07:32:00,
2013-08-17 03:37:00,68.3,67.4,30.08,NE,50,2.2,5.0,97,0.35,RA,OVC,0.35,0.0,WeatherDisplay:10.37,2013-08-17 07:37:00,
2013-08-17 03:42:00,68.2,67.3,30.08,NE,55,2.6,4.6,97,0.36,RA,OVC,0.36,0.0,WeatherDisplay:10.37,2013-08-17 07:42:00,
2013-08-17 03:47:00,68.1,67.2,30.08,ENE,58,2.4,4.6,97,0.36,RA,OVC,0.36,0.0,WeatherDisplay:10.37,2013-08-17 07:47:00,
2013-08-17 03:52:00,67.9,67.0,30.07,NNE,26,3.9,6.9,97,0.36,RA,OVC,0.37,0.0,WeatherDisplay:10.37,2013-08-17 07:52:00,
2013-08-17 03:57:00,67.9,67.3,30.07,NE,55,4.2,9.2,98,0.36,RA,OVC,0.38,0.0,WeatherDisplay:10.37,2013-08-17 07:57:00,
2013-08-17 04:02:00,67.9,67.3,30.07,NE,48,4.6,6.9,98,0.36,RA,OVC,0.38,0.0,WeatherDisplay:10.37,2013-08-17 08:02:00,
2013-08-17 04:07:00,67.9,67.3,30.07,NNE,28,2.8,6.9,98,0.35,,OVC,0.38,0.0,WeatherDisplay:10.37,2013-08-17 08:07:00,
2013-08-17 04:12:00,67.9,67.3,30.07,NNE,14,3.9,5.8,98,0.32,CLR,OVC,0.38,0.0,WeatherDisplay:10.37,2013-08-17 08:12:00,
2013-08-17 04:17:00,67.9,67.3,30.07,NE,45,0.3,2.3,98,0.31,CLR,OVC,0.38,0.0,WeatherDisplay:10.37,2013-08-17 08:17:00,
2013-08-17 04:22:00,67.9,67.3,30.08,NNE,23,1.4,3.5,98,0.19,CLR,OVC,0.38,0.0,WeatherDisplay:10.37,2013-08-17 08:22:00,
2013-08-17 04:27:00,67.8,67.2,30.08,North,5,0.9,3.5,98,0.08,CLR,OVC,0.38,0.0,WeatherDisplay:10.37,2013-08-17 08:27:00,
2013-08-17 04:32:00,67.8,67.2,30.08,NNE,19,0.6,3.5,98,0.04,CLR,OVC,0.38,0.0,WeatherDisplay:10.37,2013-08-17 08:32:00,
2013-08-17 04:37:00,67.8,67.2,30.08,NE,51,0.4,2.0,98,0.04,RA,OVC,0.39,0.0,WeatherDisplay:10.37,2013-08-17 08:37:00,
2013-08-17 04:42:00,67.8,67.2,30.08,North,5,3.7,6.9,98,0.03,RA,OVC,0.39,0.0,WeatherDisplay:10.37,2013-08-17 08:42:00,
2013-08-17 04:47:00,67.8,67.2,30.08,NNE,30,1.2,3.5,98,0.03,CLR,OVC,0.39,0.0,WeatherDisplay:10.37,2013-08-17 08:47:00,
2013-08-17 04:52:00,67.7,67.1,30.08,NE,36,0.7,3.5,98,0.02,CLR,OVC,0.39,0.0,WeatherDisplay:10.37,2013-08-17 08:52:00,
2013-08-17 04:57:00,67.8,67.2,30.08,North,5,3.0,6.9,98,0.01,CLR,OVC,0.39,0.0,WeatherDisplay:10.37,2013-08-17 08:57:00,
2013-08-17 05:02:00,67.7,67.1,30.07,NNE,29,3.3,3.5,98,0.01,CLR,OVC,0.39,0.0,WeatherDisplay:10.37,2013-08-17 09:02:00,
2013-08-17 05:07:00,67.7,67.1,30.08,NE,52,3.4,3.5,98,0.01,CLR,OVC,0.39,0.0,WeatherDisplay:10.37,2013-08-17 09:07:00,
2013-08-17 05:12:00,67.7,67.1,30.07,NNE,24,1.1,3.0,98,0.01,CLR,OVC,0.39,0.0,WeatherDisplay:10.37,2013-08-17 09:12:00,
2013-08-17 05:17:00,67.7,67.1,30.07,North,9,2.5,3.5,98,0.01,CLR,OVC,0.39,0.0,WeatherDisplay:10.37,2013-08-17 09:17:00,
2013-08-17 05:22:00,67.7,67.1,30.07,NE,39,1.2,3.5,98,0.01,CLR,OVC,0.39,0.0,WeatherDisplay:10.37,2013-08-17 09:22:00,
2013-08-17 05:27:00,67.7,67.1,30.08,ENE,65,1.7,3.5,98,0.01,CLR,OVC,0.39,0.0,WeatherDisplay:10.37,2013-08-17 09:27:00,
2013-08-17 05:32:00,67.7,67.1,30.08,NNW,344,0.3,3.5,98,0.01,CLR,OVC,0.39,0.0,WeatherDisplay:10.37,2013-08-17 09:32:00,
2013-08-17 05:37:00,67.7,67.1,30.08,NNE,29,1.0,2.3,98,0.00,CLR,OVC,0.39,0.0,WeatherDisplay:10.37,2013-08-17 09:37:00,
2013-08-17 05:42:00,67.7,67.1,30.08,NNE,13,0.5,2.3,98,0.01,RA,OVC,0.40,0.0,WeatherDisplay:10.37,2013-08-17 09:42:00,
2013-08-17 05:47:00,67.7,67.1,30.08,NNE,13,0.6,1.1,98,0.01,RA,OVC,0.40,0.0,WeatherDisplay:10.37,2013-08-17 09:47:00,
2013-08-17 05:52:00,67.7,67.1,30.07,North,5,1.1,2.3,98,0.01,,OVC,0.40,0.0,WeatherDisplay:10.37,2013-08-17 09:52:00,
2013-08-17 05:57:00,67.7,67.1,30.08,NNW,339,0.3,2.0,98,0.02,RA,OVC,0.41,0.0,WeatherDisplay:10.37,2013-08-17 09:57:00,
2013-08-17 06:02:00,67.7,67.1,30.08,ENE,58,0.6,2.3,98,0.03,RA,OVC,0.42,0.0,WeatherDisplay:10.37,2013-08-17 10:02:00,
2013-08-17 06:07:00,67.7,67.1,30.08,ENE,58,0.4,2.3,98,0.03,RA,OVC,0.42,0.0,WeatherDisplay:10.37,2013-08-17 10:07:00,
2013-08-17 06:12:00,67.8,67.2,30.08,NE,50,3.0,5.8,98,0.03,OVC,,0.42,0.0,WeatherDisplay:10.37,2013-08-17 10:12:00,
2013-08-17 06:17:00,67.8,67.2,30.08,NE,36,0.8,4.0,98,0.04,RA,OVC,0.43,0.0,WeatherDisplay:10.37,2013-08-17 10:17:00,
2013-08-17 06:22:00,67.9,67.3,30.08,NNE,32,3.4,5.8,98,0.04,RA,OVC,0.43,0.0,WeatherDisplay:10.37,2013-08-17 10:22:00,
2013-08-17 06:27:00,67.9,67.3,30.08,NNE,20,1.8,3.5,98,0.05,RA,OVC,0.44,0.0,WeatherDisplay:10.37,2013-08-17 10:27:00,
2013-08-17 06:32:00,67.9,67.3,30.08,NE,53,3.0,4.6,98,0.05,RA,OVC,0.44,0.0,WeatherDisplay:10.37,2013-08-17 10:32:00,
2013-08-17 06:37:00,67.9,67.3,30.08,NE,49,2.9,4.0,98,0.05,OVC,,0.44,0.0,WeatherDisplay:10.37,2013-08-17 10:37:00,
2013-08-17 06:42:00,68.0,67.4,30.08,NNE,32,1.7,3.5,98,0.04,OVC,,0.44,0.0,WeatherDisplay:10.37,2013-08-17 10:42:00,
2013-08-17 06:47:00,68.0,67.4,30.08,NE,44,1.9,3.5,98,0.04,OVC,,0.44,0.0,WeatherDisplay:10.37,2013-08-17 10:47:00,
2013-08-17 06:52:00,68.1,67.5,30.08,NNE,22,0.0,4.6,98,0.04,OVC,,0.44,0.0,WeatherDisplay:10.37,2013-08-17 10:52:00,
2013-08-17 06:57:00,68.2,67.6,30.08,NE,54,1.0,2.3,98,0.03,OVC,,0.44,0.0,WeatherDisplay:10.37,2013-08-17 10:57:00,
2013-08-17 07:02:00,68.2,67.6,30.08,NNE,33,2.3,3.5,98,0.02,OVC,,0.44,0.0,WeatherDisplay:10.37,2013-08-17 11:02:00,
2013-08-17 07:07:00,68.3,67.7,30.08,NE,53,2.0,3.5,98,0.02,OVC,,0.44,0.0,WeatherDisplay:10.37,2013-08-17 11:07:00,
2013-08-17 07:12:00,68.3,67.7,30.09,NNE,18,0.5,2.3,98,0.02,OVC,,0.44,0.0,WeatherDisplay:10.37,2013-08-17 11:12:00,
2013-08-17 07:17:00,68.4,67.8,30.09,NNE,18,0.0,2.3,98,0.02,RA,OVC,0.45,0.0,WeatherDisplay:10.37,2013-08-17 11:17:00,
2013-08-17 07:22:00,68.4,67.8,30.09,NE,46,1.6,3.0,98,0.02,RA,OVC,0.45,0.0,WeatherDisplay:10.37,2013-08-17 11:22:00,
2013-08-17 07:27:00,68.4,67.8,30.09,North,9,2.5,5.8,98,0.01,OVC,,0.45,0.0,WeatherDisplay:10.37,2013-08-17 11:27:00,
2013-08-17 07:32:00,68.5,67.9,30.09,NE,46,0.8,4.6,98,0.01,OVC,,0.45,0.0,WeatherDisplay:10.37,2013-08-17 11:32:00,
2013-08-17 07:37:00,68.5,67.9,30.09,NNE,28,2.1,3.5,98,0.01,OVC,,0.45,0.0,WeatherDisplay:10.37,2013-08-17 11:37:00,
2013-08-17 07:42:00,68.5,67.9,30.09,NE,36,0.6,3.5,98,0.01,OVC,,0.45,0.0,WeatherDisplay:10.37,2013-08-17 11:42:00,
2013-08-17 07:47:00,68.6,68.3,30.09,NNE,30,0.4,2.3,99,0.01,OVC,,0.45,0.0,WeatherDisplay:10.37,2013-08-17 11:47:00,
2013-08-17 07:52:00,68.6,68.3,30.09,NE,42,0.0,0.0,99,0.01,OVC,,0.45,0.0,WeatherDisplay:10.37,2013-08-17 11:52:00,
2013-08-17 07:58:00,68.6,68.3,30.09,NE,42,0.0,0.0,99,0.01,OVC,,0.45,0.0,WeatherDisplay:10.37,2013-08-17 11:58:00,
2013-08-17 08:03:00,68.7,68.4,30.09,SW,227,0.0,0.0,99,0.01,OVC,,0.45,0.0,WeatherDisplay:10.37,2013-08-17 12:03:00,
2013-08-17 08:06:00,68.7,68.4,30.09,ENE,61,2.8,4.0,99,0.01,OVC,,0.45,0.0,WeatherDisplay:10.37,2013-08-17 12:06:00,
2013-08-17 08:11:00,68.8,68.5,30.09,NE,34,1.0,4.0,99,0.01,OVC,,0.45,0.0,WeatherDisplay:10.37,2013-08-17 12:11:00,
2013-08-17 08:16:00,69.0,68.4,30.09,NNE,15,1.9,3.5,98,0.00,OVC,,0.45,0.0,WeatherDisplay:10.37,2013-08-17 12:16:00,
2013-08-17 08:21:00,69.1,68.5,30.09,NNE,23,2.6,3.5,98,0.00,OVC,,0.45,0.0,WeatherDisplay:10.37,2013-08-17 12:21:00,
2013-08-17 08:26:00,69.3,69.0,30.09,NE,43,1.8,3.5,99,0.00,OVC,,0.45,0.0,WeatherDisplay:10.37,2013-08-17 12:26:00,
2013-08-17 08:31:00,69.5,69.2,30.09,NE,42,3.3,4.6,99,0.00,OVC,,0.45,0.0,WeatherDisplay:10.37,2013-08-17 12:31:00,
2013-08-17 08:36:00,69.6,69.3,30.09,NE,34,2.4,3.5,99,0.00,OVC,,0.45,0.0,WeatherDisplay:10.37,2013-08-17 12:36:00,
2013-08-17 08:41:00,69.8,69.5,30.09,NE,44,2.4,4.6,99,0.00,OVC,,0.45,0.0,WeatherDisplay:10.37,2013-08-17 12:41:00,
2013-08-17 08:46:00,70.0,69.7,30.09,ENE,78,3.4,5.8,99,0.00,OVC,,0.45,0.0,WeatherDisplay:10.37,2013-08-17 12:46:00,
2013-08-17 08:51:00,70.2,69.9,30.09,ENE,59,2.6,4.6,99,0.00,OVC,,0.45,0.0,WeatherDisplay:10.37,2013-08-17 12:51:00,
2013-08-17 08:56:00,70.4,70.1,30.09,NE,55,4.0,6.0,99,0.00,OVC,,0.45,0.0,WeatherDisplay:10.37,2013-08-17 12:56:00,
2013-08-17 09:01:00,70.6,70.3,30.09,NNE,26,3.0,5.8,99,0.00,OVC,,0.45,0.0,WeatherDisplay:10.37,2013-08-17 13:01:00,
2013-08-17 09:06:00,70.8,70.5,30.09,ENE,72,8.8,11.5,99,0.00,OVC,,0.45,0.0,WeatherDisplay:10.37,2013-08-17 13:06:00,
2013-08-17 09:11:00,71.0,70.7,30.09,NE,46,4.9,8.1,99,0.00,OVC,,0.45,0.0,WeatherDisplay:10.37,2013-08-17 13:11:00,
2013-08-17 09:16:00,71.2,70.9,30.09,ENE,62,4.0,5.8,99,0.00,OVC,,0.45,0.0,WeatherDisplay:10.37,2013-08-17 13:16:00,
2013-08-17 09:21:00,71.3,71.0,30.09,NE,45,3.9,8.1,99,0.00,OVC,,0.45,0.0,WeatherDisplay:10.37,2013-08-17 13:21:00,
2013-08-17 09:26:00,71.5,71.2,30.09,ENE,65,5.2,10.4,99,0.00,OVC,,0.45,0.0,WeatherDisplay:10.37,2013-08-17 13:26:00,
2013-08-17 09:31:00,71.6,71.0,30.09,ENE,62,5.9,9.0,98,0.00,OVC,,0.45,0.0,WeatherDisplay:10.37,2013-08-17 13:31:00,
2013-08-17 09:36:00,71.7,71.1,30.09,ENE,62,2.8,4.6,98,0.00,OVC,,0.45,0.0,WeatherDisplay:10.37,2013-08-17 13:36:00,
2013-08-17 09:41:00,71.8,71.5,30.10,NE,41,3.3,8.1,99,0.01,RA,OVC,0.46,0.0,WeatherDisplay:10.37,2013-08-17 13:41:00,
2013-08-17 09:46:00,71.9,71.3,30.10,ENE,67,3.5,6.9,98,0.02,RA,OVC,0.48,0.0,WeatherDisplay:10.37,2013-08-17 13:46:00,
2013-08-17 09:51:00,72.0,71.4,30.10,ENE,72,6.0,9.2,98,0.04,RA,OVC,0.50,0.0,WeatherDisplay:10.37,2013-08-17 13:51:00,
2013-08-17 09:56:00,72.1,71.5,30.10,ENE,67,7.2,9.2,98,0.05,RA,OVC,0.50,0.0,WeatherDisplay:10.37,2013-08-17 13:56:00,
2013-08-17 10:01:00,72.1,71.5,30.10,North,5,8.5,11.5,98,0.07,RA,OVC,0.53,0.0,WeatherDisplay:10.37,2013-08-17 14:01:00,
2013-08-17 10:06:00,72.2,71.6,30.10,NE,34,3.4,4.6,98,0.09,RA,OVC,0.55,0.0,WeatherDisplay:10.37,2013-08-17 14:06:00,
2013-08-17 10:11:00,72.3,71.7,30.10,NNE,19,6.8,10.4,98,0.12,RA,OVC,0.57,0.0,WeatherDisplay:10.37,2013-08-17 14:11:00,
2013-08-17 10:16:00,72.4,72.1,30.10,NNE,29,4.7,8.1,99,0.13,RA,OVC,0.58,0.0,WeatherDisplay:10.37,2013-08-17 14:16:00,
2013-08-17 10:21:00,72.5,71.9,30.11,NE,54,4.4,6.9,98,0.17,RA,OVC,0.63,0.0,WeatherDisplay:10.37,2013-08-17 14:21:00,
2013-08-17 10:26:00,72.5,71.9,30.11,ENE,61,5.1,6.9,98,0.23,RA,OVC,0.68,0.0,WeatherDisplay:10.37,2013-08-17 14:26:00,
2013-08-17 10:31:00,72.6,72.0,30.11,NE,56,4.6,10.0,98,0.25,RA,OVC,0.70,0.0,WeatherDisplay:10.37,2013-08-17 14:31:00,
2013-08-17 10:36:00,72.7,72.1,30.11,NE,50,4.5,8.1,98,0.26,RA,OVC,0.72,0.0,WeatherDisplay:10.37,2013-08-17 14:36:00,
2013-08-17 10:41:00,72.8,72.2,30.11,NNE,31,1.6,3.5,98,0.27,RA,OVC,0.73,0.0,WeatherDisplay:10.37,2013-08-17 14:41:00,
2013-08-17 10:46:00,72.9,72.3,30.11,ENE,61,3.7,7.0,98,0.27,RA,OVC,0.75,0.0,WeatherDisplay:10.37,2013-08-17 14:46:00,
2013-08-17 10:51:00,73.1,72.8,30.11,NNE,15,2.8,5.8,99,0.27,RA,OVC,0.76,0.0,WeatherDisplay:10.37,2013-08-17 14:51:00,
2013-08-17 10:56:00,73.2,72.9,30.11,NE,54,2.5,4.6,99,0.28,RA,OVC,0.78,0.0,WeatherDisplay:10.37,2013-08-17 14:56:00,
2013-08-17 11:01:00,73.3,73.0,30.11,NE,37,2.9,6.9,99,0.27,RA,OVC,0.80,0.0,WeatherDisplay:10.37,2013-08-17 15:01:00,
2013-08-17 11:06:00,73.4,72.8,30.11,ENE,70,3.9,5.8,98,0.26,RA,OVC,0.80,0.0,WeatherDisplay:10.37,2013-08-17 15:06:00,
2013-08-17 11:11:00,73.5,72.9,30.11,NNE,33,3.8,8.1,98,0.24,RA,OVC,0.81,0.0,WeatherDisplay:10.37,2013-08-17 15:11:00,
2013-08-17 11:16:00,73.6,73.0,30.11,ENE,60,5.2,8.1,98,0.24,RA,OVC,0.82,0.0,WeatherDisplay:10.37,2013-08-17 15:16:00,
2013-08-17 11:21:00,73.6,73.0,30.10,NE,53,3.6,5.8,98,0.21,RA,OVC,0.83,0.0,WeatherDisplay:10.37,2013-08-17 15:21:00,
2013-08-17 11:26:00,73.6,73.0,30.10,ENE,71,7.0,11.5,98,0.16,RA,OVC,0.84,0.0,WeatherDisplay:10.37,2013-08-17 15:26:00,
2013-08-17 11:31:00,73.7,73.1,30.10,ENE,73,5.2,11.5,98,0.17,RA,OVC,0.88,0.0,WeatherDisplay:10.37,2013-08-17 15:31:00,
2013-08-17 11:36:00,73.7,73.1,30.10,NE,55,6.1,8.1,98,0.21,RA,OVC,0.93,0.0,WeatherDisplay:10.37,2013-08-17 15:36:00,
2013-08-17 11:41:00,73.7,73.1,30.10,NE,44,4.7,6.9,98,0.23,RA,OVC,0.96,0.0,WeatherDisplay:10.37,2013-08-17 15:41:00,
2013-08-17 11:46:00,73.8,73.2,30.10,East,80,2.5,6.9,98,0.24,RA,OVC,0.98,0.0,WeatherDisplay:10.37,2013-08-17 15:46:00,
2013-08-17 11:51:00,73.9,73.6,30.10,NE,38,3.9,5.0,99,0.22,RA,OVC,0.99,0.0,WeatherDisplay:10.37,2013-08-17 15:51:00,
2013-08-17 11:56:00,73.9,73.6,30.10,ENE,72,2.1,3.5,99,0.23,RA,OVC,1.01,0.0,WeatherDisplay:10.37,2013-08-17 15:56:00,
2013-08-17 12:01:00,73.9,73.3,30.11,NE,38,5.5,9.2,98,0.23,RA,OVC,1.02,0.0,WeatherDisplay:10.37,2013-08-17 16:01:00,
2013-08-17 12:06:00,73.8,73.2,30.11,East,85,2.8,6.0,98,0.22,RA,OVC,1.02,0.0,WeatherDisplay:10.37,2013-08-17 16:06:00,
2013-08-17 12:11:00,73.6,73.0,30.11,ENE,57,3.6,7.0,98,0.23,RA,OVC,1.04,0.0,WeatherDisplay:10.37,2013-08-17 16:11:00,
2013-08-17 12:16:00,73.5,72.9,30.11,NE,44,2.3,6.9,98,0.23,RA,OVC,1.05,0.0,WeatherDisplay:10.37,2013-08-17 16:16:00,
2013-08-17 12:21:00,73.5,72.9,30.10,NE,54,3.0,3.5,98,0.22,RA,OVC,1.05,0.0,WeatherDisplay:10.37,2013-08-17 16:21:00,
2013-08-17 12:26:00,73.5,72.9,30.10,ENE,65,1.6,2.3,98,0.21,OVC,,1.05,0.0,WeatherDisplay:10.37,2013-08-17 16:26:00,
2013-08-17 12:31:00,73.5,72.9,30.10,NE,42,1.1,2.3,98,0.21,RA,OVC,1.09,0.0,WeatherDisplay:10.37,2013-08-17 16:31:00,
2013-08-17 12:36:00,73.6,73.0,30.10,ENE,74,3.0,7.0,98,0.18,RA,OVC,1.11,0.0,WeatherDisplay:10.37,2013-08-17 16:36:00,
2013-08-17 12:41:00,73.6,73.0,30.09,NNE,15,2.4,5.0,98,0.16,RA,OVC,1.12,0.0,WeatherDisplay:10.37,2013-08-17 16:41:00,
2013-08-17 12:46:00,73.7,73.4,30.10,ENE,59,4.3,4.6,99,0.15,RA,OVC,1.14,0.0,WeatherDisplay:10.37,2013-08-17 16:46:00,
2013-08-17 12:51:00,73.9,73.6,30.09,NE,45,4.2,6.9,99,0.17,RA,OVC,1.16,0.0,WeatherDisplay:10.37,2013-08-17 16:51:00,
2013-08-17 12:56:00,74.0,73.4,30.09,NE,47,1.9,4.6,98,0.16,RA,OVC,1.17,0.0,WeatherDisplay:10.37,2013-08-17 16:56:00,
2013-08-17 13:01:00,74.2,73.6,30.09,NE,38,4.4,8.1,98,0.16,RA,OVC,1.18,0.0,WeatherDisplay:10.37,2013-08-17 17:01:00,
2013-08-17 13:06:00,74.3,73.7,30.09,NE,55,6.2,8.1,98,0.16,RA,OVC,1.18,0.0,WeatherDisplay:10.37,2013-08-17 17:06:00,
2013-08-17 13:12:00,74.4,73.8,30.09,North,355,3.0,5.8,98,0.15,RA,OVC,1.19,0.0,WeatherDisplay:10.37,2013-08-17 17:12:00,
2013-08-17 13:17:00,74.4,74.1,30.08,ENE,69,3.1,4.6,99,0.14,RA,OVC,1.19,0.0,WeatherDisplay:10.37,2013-08-17 17:17:00,
2013-08-17 13:22:00,74.6,74.3,30.08,ENE,69,4.8,8.1,99,0.14,OVC,,1.19,0.0,WeatherDisplay:10.37,2013-08-17 17:22:00,
2013-08-17 13:27:00,74.8,74.5,30.08,NE,53,4.0,8.0,99,0.15,RA,OVC,1.20,0.0,WeatherDisplay:10.37,2013-08-17 17:27:00,
2013-08-17 13:32:00,74.7,74.1,30.08,ENE,59,3.4,4.6,98,0.11,RA,OVC,1.20,0.0,WeatherDisplay:10.37,2013-08-17 17:32:00,
2013-08-17 13:37:00,74.8,74.2,30.08,NE,43,4.5,8.1,98,0.09,OVC,,1.20,0.0,WeatherDisplay:10.37,2013-08-17 17:37:00,
2013-08-17 13:42:00,74.9,74.3,30.08,NNE,18,5.7,9.2,98,0.08,OVC,,1.20,0.0,WeatherDisplay:10.37,2013-08-17 17:42:00,
2013-08-17 13:47:00,74.9,74.3,30.08,ENE,76,3.5,4.6,98,0.06,OVC,,1.20,0.0,WeatherDisplay:10.37,2013-08-17 17:47:00,
2013-08-17 13:52:00,75.1,74.5,30.08,NE,51,4.1,5.8,98,0.04,OVC,,1.20,0.0,WeatherDisplay:10.37,2013-08-17 17:52:00,
2013-08-17 13:57:00,75.1,74.5,30.08,NE,36,4.8,9.2,98,0.04,RA,OVC,1.21,0.0,WeatherDisplay:10.37,2013-08-17 17:57:00,
2013-08-17 14:02:00,75.3,74.7,30.08,ENE,68,5.3,8.1,98,0.03,RA,OVC,1.21,0.0,WeatherDisplay:10.37,2013-08-17 18:02:00,
2013-08-17 14:07:00,75.4,74.8,30.08,NE,42,2.8,5.8,98,0.04,RA,OVC,1.22,0.0,WeatherDisplay:10.37,2013-08-17 18:07:00,
2013-08-17 14:12:00,75.3,74.7,30.08,ENE,57,3.5,8.1,98,0.05,RA,OVC,1.24,0.0,WeatherDisplay:10.37,2013-08-17 18:12:00,
2013-08-17 14:17:00,75.0,74.1,30.07,NE,40,3.7,6.9,97,0.06,RA,OVC,1.25,0.0,WeatherDisplay:10.37,2013-08-17 18:17:00,
2013-08-17 14:22:00,74.8,73.9,30.07,NE,56,3.6,6.9,97,0.06,RA,OVC,1.25,0.0,WeatherDisplay:10.37,2013-08-17 18:22:00,
2013-08-17 14:27:00,74.7,73.8,30.07,ENE,60,4.9,8.1,97,0.05,OVC,,1.25,0.0,WeatherDisplay:10.37,2013-08-17 18:27:00,
2013-08-17 14:32:00,74.9,74.0,30.07,NNE,32,3.7,5.8,97,0.05,OVC,,1.25,0.0,WeatherDisplay:10.37,2013-08-17 18:32:00,
2013-08-17 14:37:00,75.2,74.3,30.06,NE,46,4.4,6.9,97,0.05,OVC,,1.25,0.0,WeatherDisplay:10.37,2013-08-17 18:37:00,
2013-08-17 14:42:00,75.6,74.7,30.06,NE,41,2.9,4.6,97,0.05,OVC,,1.25,0.0,WeatherDisplay:10.37,2013-08-17 18:42:00,
2013-08-17 14:47:00,76.0,75.4,30.06,NNE,19,3.5,6.9,98,0.05,OVC,,1.25,0.0,WeatherDisplay:10.37,2013-08-17 18:47:00,
2013-08-17 14:52:00,76.0,75.1,30.06,NE,36,5.5,9.2,97,0.05,OVC,,1.25,0.0,WeatherDisplay:10.37,2013-08-17 18:52:00,
2013-08-17 14:57:00,76.1,74.9,30.06,NE,39,5.7,10.4,96,0.04,OVC,,1.25,0.0,WeatherDisplay:10.37,2013-08-17 18:57:00,
2013-08-17 15:02:00,76.3,75.1,30.06,North,355,3.9,6.9,96,0.04,OVC,,1.25,0.0,WeatherDisplay:10.37,2013-08-17 19:02:00,
2013-08-17 15:07:00,76.4,75.2,30.06,NE,38,4.5,8.1,96,0.03,OVC,,1.25,0.0,WeatherDisplay:10.37,2013-08-17 19:07:00,
2013-08-17 15:12:00,76.5,75.0,30.06,NNE,14,7.1,11.5,95,0.01,OVC,,1.25,0.0,WeatherDisplay:10.37,2013-08-17 19:12:00,
2013-08-17 15:17:00,76.6,75.1,30.06,NNE,23,5.6,8.1,95,0.00,OVC,,1.25,0.0,WeatherDisplay:10.37,2013-08-17 19:17:00,
2013-08-17 15:22:00,76.6,74.7,30.06,NE,36,5.6,9.2,94,0.00,OVC,,1.25,0.0,WeatherDisplay:10.37,2013-08-17 19:22:00,
2013-08-17 15:27:00,76.7,74.8,30.06,NE,34,5.0,6.9,94,0.00,OVC,,1.25,0.0,WeatherDisplay:10.37,2013-08-17 19:27:00,
2013-08-17 15:32:00,76.8,74.9,30.06,NE,34,4.4,7.0,94,0.00,OVC,,1.25,0.0,WeatherDisplay:10.37,2013-08-17 19:32:00,
2013-08-17 15:37:00,77.1,75.2,30.05,ENE,67,8.0,11.5,94,0.00,OVC,,1.25,0.0,WeatherDisplay:10.37,2013-08-17 19:37:00,
2013-08-17 15:42:00,77.5,75.3,30.05,NE,42,3.8,6.9,93,0.00,OVC,,1.25,0.0,WeatherDisplay:10.37,2013-08-17 19:42:00,
2013-08-17 15:47:00,78.2,76.0,30.05,ENE,61,6.3,10.0,93,0.00,OVC,,1.25,0.0,WeatherDisplay:10.37,2013-08-17 19:47:00,
2013-08-17 15:52:00,78.4,75.9,30.05,NNW,338,6.8,10.4,92,0.00,OVC,,1.25,0.0,WeatherDisplay:10.37,2013-08-17 19:52:00,
2013-08-17 15:57:00,78.3,75.5,30.05,ENE,63,2.6,5.8,91,0.00,OVC,,1.25,0.0,WeatherDisplay:10.37,2013-08-17 19:57:00,
2013-08-17 16:02:00,78.0,75.5,30.05,NE,36,4.0,7.0,92,0.00,OVC,,1.25,0.0,WeatherDisplay:10.37,2013-08-17 20:02:00,
2013-08-17 16:07:00,77.5,75.0,30.05,NE,56,1.6,3.5,92,0.00,OVC,,1.25,0.0,WeatherDisplay:10.37,2013-08-17 20:07:00,
2013-08-17 16:12:00,77.5,75.3,30.05,ENE,65,3.6,4.6,93,0.00,OVC,,1.25,0.0,WeatherDisplay:10.37,2013-08-17 20:12:00,
2013-08-17 16:17:00,77.8,75.3,30.04,NE,55,2.4,4.0,92,0.00,OVC,,1.25,0.0,WeatherDisplay:10.37,2013-08-17 20:17:00,
2013-08-17 16:22:00,78.2,75.4,30.04,NE,38,3.0,4.6,91,0.00,OVC,,1.25,0.0,WeatherDisplay:10.37,2013-08-17 20:22:00,
2013-08-17 16:27:00,78.4,75.2,30.05,East,84,2.6,3.5,90,0.00,OVC,,1.25,0.0,WeatherDisplay:10.37,2013-08-17 20:27:00,
2013-08-17 16:32:00,78.4,75.2,30.05,North,5,0.1,1.1,90,0.00,OVC,,1.25,0.0,WeatherDisplay:10.37,2013-08-17 20:32:00,
2013-08-17 16:37:00,78.5,75.3,30.05,ENE,58,0.0,1.1,90,0.00,OVC,,1.25,0.0,WeatherDisplay:10.37,2013-08-17 20:37:00,
2013-08-17 16:42:00,78.7,75.2,30.05,NNE,33,0.3,3.5,89,0.00,OVC,,1.25,0.0,WeatherDisplay:10.37,2013-08-17 20:42:00,
2013-08-17 16:47:00,78.9,75.7,30.05,NE,49,0.3,2.0,90,0.00,OVC,,1.25,0.0,WeatherDisplay:10.37,2013-08-17 20:47:00,
2013-08-17 16:52:00,79.1,75.6,30.05,NW,306,0.1,1.1,89,0.00,OVC,,1.25,0.0,WeatherDisplay:10.37,2013-08-17 20:52:00,
2013-08-17 16:57:00,79.4,75.9,30.04,NNW,333,0.0,0.0,89,0.00,OVC,,1.25,0.0,WeatherDisplay:10.37,2013-08-17 20:57:00,
2013-08-17 17:02:00,79.9,76.0,30.04,WSW,256,2.0,3.5,88,0.00,OVC,,1.25,0.0,WeatherDisplay:10.37,2013-08-17 21:02:00,
2013-08-17 17:07:00,80.6,76.7,30.04,West,260,0.0,0.0,88,0.00,OVC,,1.25,0.0,WeatherDisplay:10.37,2013-08-17 21:07:00,
2013-08-17 17:12:00,81.2,76.6,30.04,North,355,0.1,0.0,86,0.00,OVC,,1.25,0.0,WeatherDisplay:10.37,2013-08-17 21:12:00,
2013-08-17 17:17:00,81.8,76.8,30.04,ENE,67,0.1,3.0,85,0.00,OVC,,1.25,0.0,WeatherDisplay:10.37,2013-08-17 21:17:00,
2013-08-17 17:22:00,81.9,76.2,30.04,NE,44,3.0,6.0,83,0.00,OVC,,1.25,0.0,WeatherDisplay:10.37,2013-08-17 21:22:00,
2013-08-17 17:27:00,81.2,75.9,30.05,NNE,30,0.5,4.0,84,0.00,OVC,,1.25,0.0,WeatherDisplay:10.37,2013-08-17 21:27:00,
2013-08-17 17:32:00,80.5,75.2,30.05,NNE,33,3.7,5.8,84,0.00,OVC,,1.25,0.0,WeatherDisplay:10.37,2013-08-17 21:32:00,
2013-08-17 17:37:00,79.9,75.0,30.05,NE,50,0.7,3.5,85,0.00,OVC,,1.25,0.0,WeatherDisplay:10.37,2013-08-17 21:37:00,
2013-08-17 17:42:00,80.0,75.4,30.05,NNE,26,0.1,1.0,86,0.00,OVC,,1.25,0.0,WeatherDisplay:10.37,2013-08-17 21:42:00,
2013-08-17 17:47:00,79.8,74.9,30.05,North,355,0.0,1.1,85,0.00,OVC,,1.25,0.0,WeatherDisplay:10.37,2013-08-17 21:47:00,
2013-08-17 17:52:00,80.0,75.4,30.05,North,355,0.0,0.0,86,0.00,OVC,,1.25,0.0,WeatherDisplay:10.37,2013-08-17 21:52:00,
2013-08-17 17:57:00,80.3,75.4,30.05,ENE,57,0.9,2.3,85,0.00,OVC,,1.25,0.0,WeatherDisplay:10.37,2013-08-17 21:57:00,
2013-08-17 18:02:00,80.5,75.2,30.05,NE,49,0.0,0.0,84,0.00,OVC,,1.25,0.0,WeatherDisplay:10.37,2013-08-17 22:02:00,
2013-08-17 18:07:00,80.8,75.5,30.05,NW,326,0.0,0.0,84,0.00,OVC,,1.25,0.0,WeatherDisplay:10.37,2013-08-17 22:07:00,
2013-08-17 18:12:00,80.9,75.6,30.05,NNW,327,0.0,0.0,84,0.00,OVC,,1.25,0.0,WeatherDisplay:10.37,2013-08-17 22:12:00,
2013-08-17 18:17:00,80.9,75.6,30.04,West,279,0.4,2.3,84,0.00,OVC,,1.25,0.0,WeatherDisplay:10.37,2013-08-17 22:17:00,
2013-08-17 18:22:00,80.7,75.8,30.04,NNW,346,0.3,3.5,85,0.00,OVC,,1.25,0.0,WeatherDisplay:10.37,2013-08-17 22:22:00,
2013-08-17 18:27:00,80.5,75.6,30.05,NNW,345,0.0,0.0,85,0.00,OVC,,1.25,0.0,WeatherDisplay:10.37,2013-08-17 22:27:00,
2013-08-17 18:32:00,80.4,75.1,30.05,ENE,68,0.0,0.0,84,0.00,OVC,,1.25,0.0,WeatherDisplay:10.37,2013-08-17 22:32:00,
2013-08-17 18:37:00,80.3,75.4,30.05,ENE,68,0.0,0.0,85,0.00,OVC,,1.25,0.0,WeatherDisplay:10.37,2013-08-17 22:37:00,
2013-08-17 18:42:00,80.2,75.3,30.06,ENE,68,0.0,0.0,85,0.00,OVC,,1.25,0.0,WeatherDisplay:10.37,2013-08-17 22:42:00,
2013-08-17 18:47:00,80.1,75.2,30.06,ENE,68,0.0,0.0,85,0.00,OVC,,1.25,0.0,WeatherDisplay:10.37,2013-08-17 22:47:00,
2013-08-17 18:52:00,80.0,75.4,30.06,ENE,68,0.0,0.0,86,0.00,OVC,,1.25,0.0,WeatherDisplay:10.37,2013-08-17 22:52:00,
2013-08-17 18:57:00,80.0,75.8,30.06,ENE,68,0.0,0.0,87,0.00,OVC,,1.25,0.0,WeatherDisplay:10.37,2013-08-17 22:57:00,
2013-08-17 19:02:00,79.8,75.2,30.07,ENE,68,0.0,0.0,86,0.00,OVC,,1.25,0.0,WeatherDisplay:10.37,2013-08-17 23:02:00,
2013-08-17 19:07:00,79.7,75.5,30.07,ENE,68,0.0,0.0,87,0.00,OVC,,1.25,0.0,WeatherDisplay:10.37,2013-08-17 23:07:00,
2013-08-17 19:12:00,79.5,74.9,30.07,ENE,68,0.0,0.0,86,0.00,OVC,,1.25,0.0,WeatherDisplay:10.37,2013-08-17 23:12:00,
2013-08-17 19:17:00,79.4,75.2,30.07,ENE,68,0.0,0.0,87,0.00,OVC,,1.25,0.0,WeatherDisplay:10.37,2013-08-17 23:17:00,
2013-08-17 19:22:00,79.2,75.3,30.07,ENE,68,0.0,0.0,88,0.00,OVC,,1.25,0.0,WeatherDisplay:10.37,2013-08-17 23:22:00,
2013-08-17 19:27:00,78.9,75.0,30.07,ENE,68,0.0,0.0,88,0.00,OVC,,1.25,0.0,WeatherDisplay:10.37,2013-08-17 23:27:00,
2013-08-17 19:33:00,78.6,75.1,30.07,ENE,68,0.0,0.0,89,0.00,OVC,,1.25,0.0,WeatherDisplay:10.37,2013-08-17 23:33:00,
2013-08-17 19:38:00,78.4,74.9,30.07,ENE,68,0.0,0.0,89,0.00,OVC,,1.25,0.0,WeatherDisplay:10.37,2013-08-17 23:38:00,
2013-08-17 19:43:00,78.1,74.9,30.08,ENE,68,0.0,0.0,90,0.00,OVC,,1.25,0.0,WeatherDisplay:10.37,2013-08-17 23:43:00,
2013-08-17 19:48:00,77.8,74.6,30.08,ENE,68,0.0,0.0,90,0.00,OVC,,1.25,0.0,WeatherDisplay:10.37,2013-08-17 23:48:00,
2013-08-17 19:53:00,77.6,74.8,30.09,ENE,68,0.0,0.0,91,0.00,OVC,,1.25,0.0,WeatherDisplay:10.37,2013-08-17 23:53:00,
2013-08-17 19:58:00,77.3,74.8,30.09,ENE,68,0.0,0.0,92,0.00,OVC,,1.25,0.0,WeatherDisplay:10.37,2013-08-17 23:58:00,
2013-08-17 20:03:00,77.1,74.6,30.09,ENE,68,0.0,0.0,92,0.00,CLR,OVC,1.25,0.0,WeatherDisplay:10.37,2013-08-18 00:03:00,
2013-08-17 20:08:00,76.8,74.3,30.09,ENE,68,0.0,0.0,92,0.00,CLR,OVC,1.25,0.0,WeatherDisplay:10.37,2013-08-18 00:08:00,
2013-08-17 20:13:00,76.6,74.4,30.09,ENE,68,0.0,0.0,93,0.00,CLR,OVC,1.25,0.0,WeatherDisplay:10.37,2013-08-18 00:13:00,
2013-08-17 20:18:00,76.5,74.3,30.09,ENE,68,0.0,0.0,93,0.00,CLR,OVC,1.25,0.0,WeatherDisplay:10.37,2013-08-18 00:18:00,
2013-08-17 20:23:00,76.3,74.1,30.09,ENE,68,0.0,0.0,93,0.00,CLR,OVC,1.25,0.0,WeatherDisplay:10.37,2013-08-18 00:23:00,
2013-08-17 20:28:00,76.1,74.2,30.10,ENE,68,0.0,0.0,94,0.00,CLR,OVC,1.25,0.0,WeatherDisplay:10.37,2013-08-18 00:28:00,
2013-08-17 20:33:00,76.0,74.1,30.09,ENE,68,0.0,0.0,94,0.00,CLR,OVC,1.25,0.0,WeatherDisplay:10.37,2013-08-18 00:33:00,
2013-08-17 20:38:00,75.9,74.4,30.09,ENE,68,0.0,0.0,95,0.00,CLR,OVC,1.25,0.0,WeatherDisplay:10.37,2013-08-18 00:38:00,
2013-08-17 20:43:00,75.9,74.4,30.10,ENE,68,0.0,0.0,95,0.00,CLR,OVC,1.25,0.0,WeatherDisplay:10.37,2013-08-18 00:43:00,
2013-08-17 20:48:00,75.8,74.3,30.09,ENE,68,0.0,0.0,95,0.00,CLR,OVC,1.25,0.0,WeatherDisplay:10.37,2013-08-18 00:48:00,
2013-08-17 20:53:00,75.8,74.6,30.10,ENE,68,0.0,0.0,96,0.00,CLR,OVC,1.25,0.0,WeatherDisplay:10.37,2013-08-18 00:53:00,
2013-08-17 20:58:00,75.8,74.6,30.10,ENE,68,0.0,1.1,96,0.00,CLR,OVC,1.25,0.0,WeatherDisplay:10.37,2013-08-18 00:58:00,
2013-08-17 21:03:00,75.9,74.7,30.10,ENE,68,0.0,0.0,96,0.00,CLR,OVC,1.25,0.0,WeatherDisplay:10.37,2013-08-18 01:03:00,
2013-08-17 21:08:00,75.9,74.7,30.10,ENE,68,0.0,0.0,96,0.00,CLR,OVC,1.25,0.0,WeatherDisplay:10.37,2013-08-18 01:08:00,
2013-08-17 21:13:00,76.0,74.8,30.11,ENE,69,0.0,0.0,96,0.00,CLR,OVC,1.25,0.0,WeatherDisplay:10.37,2013-08-18 01:13:00,
2013-08-17 21:18:00,75.9,74.7,30.11,ENE,69,0.0,0.0,96,0.00,CLR,OVC,1.25,0.0,WeatherDisplay:10.37,2013-08-18 01:18:00,
2013-08-17 21:23:00,75.9,74.7,30.11,ENE,69,0.0,0.0,96,0.01,RA,OVC,1.27,0.0,WeatherDisplay:10.37,2013-08-18 01:23:00,
2013-08-17 21:28:00,75.9,74.7,30.11,ENE,69,0.0,0.0,96,0.02,RA,OVC,1.27,0.0,WeatherDisplay:10.37,2013-08-18 01:28:00,
2013-08-17 21:33:00,75.8,74.6,30.11,WSW,247,0.0,0.0,96,0.02,RA,OVC,1.27,0.0,WeatherDisplay:10.37,2013-08-18 01:33:00,
2013-08-17 21:38:00,75.8,74.6,30.11,WSW,247,0.0,0.0,96,0.02,CLR,OVC,1.27,0.0,WeatherDisplay:10.37,2013-08-18 01:38:00,
2013-08-17 21:43:00,75.7,74.5,30.11,WSW,247,0.0,0.0,96,0.02,CLR,OVC,1.27,0.0,WeatherDisplay:10.37,2013-08-18 01:43:00,
2013-08-17 21:48:00,75.7,74.8,30.12,WSW,247,0.0,0.0,97,0.02,CLR,OVC,1.27,0.0,WeatherDisplay:10.37,2013-08-18 01:48:00,
2013-08-17 21:53:00,75.6,74.7,30.11,WSW,247,0.0,0.0,97,0.02,CLR,OVC,1.27,0.0,WeatherDisplay:10.37,2013-08-18 01:53:00,
2013-08-17 21:58:00,75.6,74.4,30.12,WSW,247,0.0,0.0,96,0.02,CLR,OVC,1.27,0.0,WeatherDisplay:10.37,2013-08-18 01:58:00,
2013-08-17 22:03:00,75.5,74.6,30.12,WSW,247,0.0,0.0,97,0.02,CLR,OVC,1.27,0.0,WeatherDisplay:10.37,2013-08-18 02:03:00,
2013-08-17 22:08:00,75.4,74.5,30.12,WSW,247,0.0,0.0,97,0.02,CLR,OVC,1.27,0.0,WeatherDisplay:10.37,2013-08-18 02:08:00,
2013-08-17 22:13:00,75.4,74.5,30.12,WSW,247,0.0,0.0,97,0.02,CLR,OVC,1.27,0.0,WeatherDisplay:10.37,2013-08-18 02:13:00,
2013-08-17 22:18:00,75.3,74.4,30.12,WSW,247,0.0,0.0,97,0.02,CLR,OVC,1.27,0.0,WeatherDisplay:10.37,2013-08-18 02:18:00,
2013-08-17 22:23:00,75.2,74.3,30.12,WSW,247,0.0,0.0,97,0.01,CLR,OVC,1.27,0.0,WeatherDisplay:10.37,2013-08-18 02:23:00,
2013-08-17 22:28:00,75.1,74.2,30.12,WSW,247,0.0,0.0,97,0.00,CLR,OVC,1.27,0.0,WeatherDisplay:10.37,2013-08-18 02:28:00,
2013-08-17 22:33:00,75.0,74.1,30.13,WSW,247,0.0,0.0,97,0.00,CLR,OVC,1.27,0.0,WeatherDisplay:10.37,2013-08-18 02:33:00,
2013-08-17 22:38:00,74.9,74.0,30.13,WSW,247,0.0,0.0,97,0.00,CLR,OVC,1.27,0.0,WeatherDisplay:10.37,2013-08-18 02:38:00,
2013-08-17 22:43:00,74.8,73.9,30.13,WSW,247,0.0,0.0,97,0.00,CLR,OVC,1.27,0.0,WeatherDisplay:10.37,2013-08-18 02:43:00,
2013-08-17 22:48:00,74.7,73.8,30.13,WSW,247,0.0,0.0,97,0.00,CLR,OVC,1.27,0.0,WeatherDisplay:10.37,2013-08-18 02:48:00,
2013-08-17 22:53:00,74.6,73.7,30.13,WSW,247,0.0,0.0,97,0.00,CLR,OVC,1.27,0.0,WeatherDisplay:10.37,2013-08-18 02:53:00,
2013-08-17 22:58:00,74.5,73.6,30.13,WSW,247,0.0,0.0,97,0.00,CLR,OVC,1.27,0.0,WeatherDisplay:10.37,2013-08-18 02:58:00,
2013-08-17 23:03:00,74.4,73.5,30.13,WSW,247,0.0,0.0,97,0.00,CLR,OVC,1.27,0.0,WeatherDisplay:10.37,2013-08-18 03:03:00,
2013-08-17 23:08:00,74.4,73.5,30.13,WSW,247,0.0,0.0,97,0.00,CLR,OVC,1.27,0.0,WeatherDisplay:10.37,2013-08-18 03:08:00,
2013-08-17 23:13:00,74.4,73.5,30.13,WSW,247,0.0,0.0,97,0.00,CLR,OVC,1.27,0.0,WeatherDisplay:10.37,2013-08-18 03:13:00,
2013-08-17 23:18:00,74.4,73.5,30.13,WSW,247,0.0,0.0,97,0.00,CLR,OVC,1.27,0.0,WeatherDisplay:10.37,2013-08-18 03:18:00,
2013-08-17 23:23:00,74.3,73.7,30.13,WSW,250,0.0,0.0,98,0.00,CLR,OVC,1.27,0.0,WeatherDisplay:10.37,2013-08-18 03:23:00,
2013-08-17 23:28:00,74.4,73.8,30.14,NW,310,0.0,0.0,98,0.00,CLR,OVC,1.27,0.0,WeatherDisplay:10.37,2013-08-18 03:28:00,
2013-08-17 23:33:00,74.4,73.8,30.14,NW,309,0.0,0.0,98,0.00,CLR,OVC,1.27,0.0,WeatherDisplay:10.37,2013-08-18 03:33:00,
2013-08-17 23:38:00,74.4,73.8,30.14,NW,309,0.0,0.0,98,0.00,CLR,OVC,1.27,0.0,WeatherDisplay:10.37,2013-08-18 03:38:00,
2013-08-17 23:43:00,74.3,73.4,30.13,NW,309,0.0,0.0,97,0.00,CLR,OVC,1.27,0.0,WeatherDisplay:10.37,2013-08-18 03:43:00,
2013-08-17 23:48:00,74.3,73.4,30.14,NW,309,0.0,0.0,97,0.00,CLR,OVC,1.27,0.0,WeatherDisplay:10.37,2013-08-18 03:48:00,
2013-08-17 23:53:00,74.2,73.6,30.14,NW,309,0.0,0.0,98,0.00,CLR,OVC,1.27,0.0,WeatherDisplay:10.37,2013-08-18 03:53:00,
2013-08-17 23:58:00,74.1,73.5,30.14,NW,309,0.0,1.1,98,0.00,CLR,OVC,1.27,0.0,WeatherDisplay:10.37,2013-08-18 03:58:00,